Location: Dalton
(34.7700°N, 84.9700°W)
Time: 04:07:29
(UTC-05:00)

Vanguard 2 Rocket - Visible Passes

Search period start: 18 December 2017 00:00
Search period end: 28 December 2017 00:00
Orbit: 556 x 3326 km, 32.9° (Epoch: 16 December)

Date Brightness Start Highest point End Pass type
(mag) Time Alt. Az. Time Alt. Az. Time Alt. Az.
18 Dec11.101:18:05SE01:18:05SE00:37:18WNWvisible
18 Dec 10.7 03:23:53 12° S 03:23:53 12° S 03:24:52 10° S visible
18 Dec 8.7 19:10:05 10° WSW 19:19:55 76° SSE 19:29:28 30° E visible
18 Dec 9.0 21:23:27 10° W 21:35:17 76° WSW 21:35:17 76° WSW visible
18 Dec 10.5 23:38:23 10° W 23:41:05 19° W 23:41:05 19° W visible
19 Dec 8.6 18:11:17 10° WSW 18:19:34 65° SSE 18:33:16 13° E visible
19 Dec 8.8 20:23:54 10° W 20:35:28 84° S 20:39:04 63° ESE visible
19 Dec 9.9 22:38:02 10° W 22:44:52 38° W 22:44:52 38° W visible
20 Dec11.201:31:08SSE01:31:08SSE00:50:41WNWvisible
20 Dec 8.6 19:24:41 10° W 19:34:29 82° S 19:42:53 35° E visible
20 Dec 9.1 21:38:08 10° W 21:48:42 66° WSW 21:48:42 66° WSW visible
20 Dec 10.7 23:53:14 10° W 23:54:30 14° W 23:54:30 14° W visible
21 Dec 8.4 18:25:45 10° WSW 18:34:00 75° SSE 18:46:44 16° E visible
21 Dec 8.8 20:38:35 10° W 20:50:07 81° S 20:52:33 70° ESE visible
21 Dec 10.0 22:52:47 10° W 22:58:21 31° W 22:58:21 31° W visible
22 Dec 8.6 19:39:21 10° W 19:49:08 83° S 19:56:26 39° E visible
22 Dec 9.3 21:52:49 10° W 22:02:15 56° WSW 22:02:15 56° WSW visible
23 Dec 8.3 18:40:22 10° W 18:48:37 81° S 19:00:22 18° E visible
23 Dec 8.9 20:53:16 10° W 21:04:43 74° SSW 21:06:11 70° SSE visible
23 Dec 10.2 23:07:42 10° W 23:12:01 24° W 23:12:01 24° W visible
24 Dec 8.1 17:41:36 10° WSW 17:48:32 74° SSE 18:01:19 10° E visible
24 Dec 8.6 19:54:02 10° W 20:03:48 79° S 20:10:12 43° ESE visible
24 Dec 9.5 22:07:37 10° W 22:16:02 46° WSW 22:16:02 46° WSW visible
25 Dec 8.3 18:55:03 10° W 19:03:16 82° S 19:14:17 20° E visible
25 Dec 9.0 21:07:59 10° W 21:19:15 64° SSW 21:20:07 63° S visible
25 Dec 10.4 23:22:59 10° W 23:25:57 18° W 23:25:57 18° W visible
26 Dec 8.0 17:56:14 10° W 18:03:09 80° S 18:15:58 10° E visible
26 Dec 8.7 20:08:44 10° W 20:18:24 71° SSW 20:24:17 43° SE visible
26 Dec 9.8 22:22:36 10° W 22:30:08 36° WSW 22:30:08 36° WSW visible
27 Dec 8.3 19:09:44 10° W 19:17:56 76° S 19:28:34 21° ESE visible
27 Dec 9.2 21:22:49 10° W 21:33:45 51° SSW 21:34:25 51° SSW visible
